Location: Fishcreek Rd Observing Site
(41.1865°N, 81.4271°W)
Time: 03:08:21
(UTC-04:00)

Iridium 75 - Visible Passes

Search period start: 06 July 2015 00:00
Search period end: 16 July 2015 00:00
Orbit: 776 x 779 km, 86.4° (Epoch: 05 July)

Date Brightness Start Highest point End Pass type
(mag) Time Alt. Az. Time Alt. Az. Time Alt. Az.
06 Jul 8.9 03:23:55 10° NE 03:25:10 11° ENE 03:26:45 10° E visible
06 Jul 6.0 05:01:31 10° N 05:06:46 85° W 05:11:59 10° S visible
07 Jul 6.8 04:28:05 10° N 04:33:11 53° E 04:38:17 10° SSE visible
08 Jul 7.8 03:54:59 10° NNE 03:59:28 29° ENE 04:04:00 10° SE visible
09 Jul 8.6 03:22:29 10° NE 03:25:35 16° ENE 03:28:53 10° ESE visible
09 Jul 6.1 05:01:42 10° N 05:06:51 58° W 05:11:56 10° SSW visible
10 Jul 6.2 04:28:06 10° N 04:33:21 77° E 04:38:33 10° S visible
11 Jul 7.2 03:54:48 10° NNE 03:59:43 41° E 04:04:39 10° SSE visible
12 Jul 8.1 03:21:53 10° NNE 03:25:56 23° ENE 03:30:06 10° SE visible
12 Jul 6.6 05:02:00 10° NNW 05:06:52 40° W 05:11:41 10° SSW visible
13 Jul 8.6 02:49:52 10° NE 02:51:58 13° ENE 02:54:22 10° E visible
13 Jul 6.0 04:28:13 10° N 04:33:27 75° W 04:38:16 12° S visible
14 Jul 6.5 03:54:44 10° N 03:59:54 60° E 04:04:21 14° SSE visible
15 Jul 7.5 03:21:34 10° NNE 03:26:12 33° E 03:30:28 12° SE visible
15 Jul 7.1 05:02:27 10° NNW 05:06:52 28° W 05:10:54 11° SW visible
